Eugene, OR

5:18 AM PST on December 16, 2017 (GMT -0800)
Mahlon Sweet

Weather History for KEUG - February, 2012

Change the Weather History Date:

Thursday, February 16, 2012

  Actual Average Record
Temperature  
Mean Temperature 40 °F 43 °F  
Max Temperature 48 °F 51 °F 74 °F (1902)
Min Temperature 32 °F 35 °F 16 °F (1956)
Degree Days  
Heating Degree Days 25 22  
Month to date heating degree days 375 362  
Since 1 July heating degree days 2980 3072  
Cooling Degree Days 0 0  
Month to date cooling degree days 0 0  
Year to date cooling degree days 0 0  
Moisture  
Dew Point 39 °F    
Average Humidity 84    
Maximum Humidity 96    
Minimum Humidity 71    
Precipitation  
Precipitation T in 0.19 in 1.69 in (2017)
Month to date precipitation 1.22 3.13  
Year to date precipitation 9.34 10.00  
Snow  
Snow 0.00 in - - ()
Month to date snowfall 0.0  
Since 1 July snowfall 0.0  
Snow Depth 0.00 in    
Sea Level Pressure  
Sea Level Pressure 30.30 in    
Wind  
Wind Speed 6 mph (South)    
Max Wind Speed 14 mph    
Max Gust Speed 23 mph    
Visibility 10 miles    
Events Rain    
T = Trace of Precipitation, MM = Missing Value Source: NWS Daily Summary

Daily Weather History Graph

Daily Weather History Graph

Search for Another Location

Airport or City:

Trip Planner

Search our weather history database for the weather conditions in past years. The results will help you decide how hot, cold, wet, or windy it might be!

Date:

Astronomy

Feb. 16, 2012 Rise Set
Actual Time 7:11 AM PST 5:43 PM PST
Civil Twilight 6:41 AM PST 6:12 PM PST
Nautical Twilight 6:07 AM PST 6:46 PM PST
Astronomical Twilight 5:34 AM PST 7:20 PM PST
Moon 3:19 AM PST 12:33 PM PST
Length of Visible Light 11h 31m
Length of Day
10h 31m
Waning Crescent, 27% of the Moon is Illuminated
Feb 16
Waning Crescent
Feb 21
New
Feb 29
First Quarter
Mar 8
Full
Mar 14
Last Quarter

Hourly Weather History & Observations

Time (PST) Temp. Windchill Dew Point Humidity Pressure Visibility Wind Dir Wind Speed Gust Speed Precip Events Conditions
12:54 AM 33.1 °F 27.7 °F 32.0 °F 96% 30.36 in 9.0 mi SW 5.8 mph - N/A   Mostly Cloudy
1:54 AM 33.1 °F 26.9 °F 32.0 °F 96% 30.35 in 8.0 mi SSW 6.9 mph - N/A   Mostly Cloudy
2:54 AM 33.8 °F 30.8 °F 32.0 °F 93% 30.33 in 8.0 mi SW 3.5 mph - N/A   Overcast
3:54 AM 35.1 °F 32.2 °F 33.1 °F 92% 30.33 in 9.0 mi South 3.5 mph - N/A   Overcast
4:54 AM 36.0 °F 30.3 °F 33.1 °F 89% 30.31 in 10.0 mi SSW 6.9 mph - N/A   Overcast
5:54 AM 37.0 °F 31.0 °F 35.1 °F 93% 30.30 in 10.0 mi South 8.1 mph - N/A   Overcast
6:54 AM 37.9 °F 31.5 °F 35.1 °F 89% 30.32 in 10.0 mi WSW 9.2 mph - 0.00 in   Overcast
7:54 AM 37.9 °F 32.7 °F 35.1 °F 89% 30.35 in 10.0 mi SW 6.9 mph - 0.00 in   Overcast
8:54 AM 41.0 °F 35.2 °F 37.4 °F 87% 30.33 in 10.0 mi South 9.2 mph - N/A Rain Light Rain
9:54 AM 44.1 °F 39.0 °F 37.9 °F 79% 30.33 in 10.0 mi South 9.2 mph - 0.00 in   Overcast
10:54 AM 45.0 °F 40.1 °F 37.9 °F 76% 30.33 in 10.0 mi South 9.2 mph - N/A   Overcast
11:54 AM 45.0 °F 39.3 °F 37.9 °F 76% 30.33 in 10.0 mi South 11.5 mph - 0.00 in   Overcast
12:54 PM 46.4 °F 41.9 °F 37.4 °F 71% 30.30 in 10.0 mi South 9.2 mph - N/A   Overcast
1:03 PM 46.4 °F 42.4 °F 37.4 °F 71% 30.30 in 10.0 mi South 8.1 mph - N/A   Overcast
1:54 PM 46.9 °F - 39.0 °F 74% 30.32 in 8.0 mi South 4.6 mph - 0.00 in Rain Light Rain
2:54 PM 46.9 °F - 39.9 °F 77% 30.31 in 9.0 mi South 4.6 mph - 0.00 in   Overcast
3:35 PM 48.2 °F - 41.0 °F 76% 30.29 in 10.0 mi SSE 5.8 mph - N/A   Overcast
3:45 PM 48.2 °F - 39.2 °F 71% 30.29 in 9.0 mi SSE 5.8 mph - N/A   Overcast
3:54 PM 48.2 °F - 41.0 °F 76% 30.29 in 10.0 mi SSE 3.5 mph - N/A   Overcast
4:54 PM 48.0 °F - 41.0 °F 77% 30.28 in 10.0 mi South 6.9 mph - N/A   Overcast
5:54 PM 48.0 °F - 41.0 °F 77% 30.27 in 10.0 mi SE 6.9 mph - N/A   Overcast
6:54 PM 46.9 °F - 41.0 °F 80% 30.27 in 10.0 mi SE 4.6 mph - N/A   Overcast
7:54 PM 46.9 °F - 42.1 °F 83% 30.27 in 10.0 mi South 5.8 mph - N/A   Overcast
8:35 PM 46.4 °F 45.2 °F 42.8 °F 87% 30.27 in 10.0 mi SW 3.5 mph - N/A   Overcast
8:54 PM 45.0 °F 43.5 °F 43.0 °F 93% 30.27 in 10.0 mi WSW 3.5 mph - N/A   Overcast
9:54 PM 45.0 °F - 43.0 °F 93% 30.28 in 10.0 mi Calm Calm - N/A   Overcast
10:54 PM 45.0 °F 42.6 °F 43.0 °F 93% 30.27 in 8.0 mi SSW 4.6 mph - 0.00 in   Light Drizzle
11:22 PM 44.6 °F 42.2 °F 42.8 °F 93% 30.27 in 10.0 mi SSW 4.6 mph - 0.00 in   Overcast
11:41 PM 44.6 °F 42.2 °F 42.8 °F 93% 30.26 in 10.0 mi South 4.6 mph - 0.00 in   Light Drizzle
11:54 PM 45.0 °F 41.8 °F 43.0 °F 93% 30.27 in 10.0 mi South 5.8 mph - 0.00 in   Overcast